This is the latest recevied weather packets stored in our database for station/object KI6SYE. If no packets are shown the sender has not sent any weather packets the latest 10 day(s).
| Time | Temp. | Humidity | Pressure | Rain* | Wind** | Luminosity | Snow |
|---|---|---|---|---|---|---|---|
| 1777053755 | 21.11° C | 65% | 1013.6 hPa | 0 mm | - | 716 W/m² | - |
| 1777053455 | 21.67° C | 65% | 1013.5 hPa | 0 mm | - | 701 W/m² | - |
| 1777053150 | 21.67° C | 65% | 1013.4 hPa | 0 mm | - | 703 W/m² | - |
| 1777052847 | 21.67° C | 64% | 1013.4 hPa | 0 mm | - | 693 W/m² | - |
| 1777052547 | 21.67° C | 65% | 1013.2 hPa | 0 mm | - | 685 W/m² | - |
| 1777052244 | 21.11° C | 66% | 1013.3 hPa | 0 mm | - | 672 W/m² | - |
| 1777051939 | 21.67° C | 64% | 1012.9 hPa | 0 mm | - | 665 W/m² | - |
| 1777051637 | 21.67° C | 63% | 1013.3 hPa | 0 mm | - | 652 W/m² | - |
| 1777051333 | 21.11° C | 64% | 1013.3 hPa | 0 mm | - | 640 W/m² | - |
| 1777051028 | 21.11° C | 64% | 1013.4 hPa | 0 mm | - | 631 W/m² | - |
| 1777050724 | 21.11° C | 66% | 1013.3 hPa | 0 mm | - | 619 W/m² | - |
| 1777050419 | 21.11° C | 65% | 1013.5 hPa | 0 mm | - | 613 W/m² | - |
| 1777050114 | 20.56° C | 68% | 1013.5 hPa | 0 mm | - | 607 W/m² | - |
| 1777049809 | 20° C | 68% | 1013.3 hPa | 0 mm | - | 598 W/m² | - |
| 1777049505 | 20.56° C | 69% | 1013.2 hPa | 0 mm | - | 552 W/m² | - |
| 1777049204 | 20.56° C | 68% | 1013.6 hPa | 0 mm | - | 566 W/m² | - |
| 1777048903 | 20.56° C | 69% | 1013.3 hPa | 0 mm | - | 565 W/m² | - |
| 1777048599 | 20° C | 67% | 1013.3 hPa | 0 mm | - | 527 W/m² | - |
| 1777048294 | 20° C | 68% | 1013.3 hPa | 0 mm | - | 513 W/m² | - |
| 1777047989 | 20° C | 69% | 1013.3 hPa | 0 mm | - | 496 W/m² | - |
| 1777047685 | 20° C | 70% | 1013.4 hPa | 0 mm | - | 488 W/m² | - |
| 1777047381 | 19.44° C | 72% | 1013.7 hPa | 0 mm | - | 508 W/m² | - |
| 1777047076 | 19.44° C | 72% | 1013.6 hPa | 0 mm | - | 483 W/m² | - |
| 1777046774 | 19.44° C | 71% | 1013.7 hPa | 0 mm | - | 161 W/m² | - |
| 1777046470 | 19.44° C | 72% | 1013.5 hPa | 0 mm | - | 455 W/m² | - |
* Rain latest hour (hover to see other rain measurements)
** Current wind speed in m/s (hover to see current wind gust speed)